K9APR Weather Reports


Display with metric or nautical units.
time (UTC)temp
F
wind
direction
speed
MPH
gust
MPH
rain 1hr
in
rain 24hr
in
rain mn
in
humidity
%
barometer
mb
20260903135242 79 304 0.0 0.0 0.00 0.00 0.00 86 1016.6
20260903134457 78 309 0.0 0.0 0.00 0.00 0.00 86 1016.7
20260903134425 78 309 0.0 0.0 0.00 0.00 0.00 86 1016.7
20260903134338 78 309 0.0 0.0 0.00 0.00 0.00 86 1016.7
20260903133437 78 219 0.0 1.0 0.00 0.00 0.00 86 1016.7
20260903132921 77 207 0.0 0.0 0.00 0.00 0.00 87 1016.7
20260903132540 77 207 0.0 0.0 0.00 0.00 0.00 87 1016.7
20260903132008 76 165 0.0 0.0 0.00 0.00 0.00 87 1016.9
20260903131711 76 165 0.0 0.0 0.00 0.00 0.00 87 1016.9
20260903131639 76 165 0.0 0.0 0.00 0.00 0.00 87 1016.9
20260903131004 76 165 0.0 0.0 0.00 0.00 0.00 88 1016.9
20260903130841 76 165 0.0 0.0 0.00 0.00 0.00 88 1016.9
20260903130739 76 165 0.0 0.0 0.00 0.00 0.00 88 1016.9
20260903130010 75 185 0.0 0.0 0.00 0.00 0.00 88 1016.9
20260903125931 75 185 0.0 0.0 0.00 0.00 0.00 88 1016.9
20260903125837 75 185 0.0 0.0 0.00 0.00 0.00 88 1016.9
20260903125350 75 185 0.0 0.0 0.00 0.00 0.00 88 1017.0
20260903125147 75 185 0.0 0.0 0.00 0.00 0.00 88 1017.0
20260903125048 75 185 0.0 0.0 0.00 0.00 0.00 88 1017.0
20260903125012 75 185 0.0 0.0 0.00 0.00 0.00 88 1017.0
20260903124941 75 185 0.0 0.0 0.00 0.00 0.00 88 1017.0
20260903124111 74 185 0.0 0.0 0.00 0.00 0.00 89 1016.8
20260903124037 74 185 0.0 0.0 0.00 0.00 0.00 89 1016.8
20260903123138 74 185 0.0 0.0 0.00 0.00 0.00 88 1016.8
20260903122353 73 185 0.0 0.0 0.00 0.00 0.00 88 1016.8
20260903122311 73 185 0.0 0.0 0.00 0.00 0.00 88 1016.8
20260903122240 73 185 0.0 0.0 0.00 0.00 0.00 88 1016.8
20260903121339 74 185 0.0 0.0 0.00 0.00 0.00 88 1016.9
20260903120437 74 185 0.0 0.0 0.00 0.00 0.00 88 1016.8
20260903115733 73 185 0.0 0.0 0.00 0.00 0.00 88 1016.7
20260903115650 73 185 0.0 0.0 0.00 0.00 0.00 88 1016.7
20260903115537 73 185 0.0 0.0 0.00 0.00 0.00 88 1016.7
20260903114711 74 185 0.0 0.0 0.00 0.00 0.00 88 1016.7
20260903114640 74 185 0.0 0.0 0.00 0.00 0.00 88 1016.7
20260903112957 73 187 0.0 0.0 0.00 0.00 0.00 88 1016.5
20260903112909 73 187 0.0 0.0 0.00 0.00 0.00 88 1016.5
20260903112837 73 187 0.0 0.0 0.00 0.00 0.00 88 1016.5
20260903112020 73 187 0.0 0.0 0.00 0.00 0.00 87 1016.4
20260903111939 73 187 0.0 0.0 0.00 0.00 0.00 87 1016.4
20260903111038 74 187 0.0 0.0 0.00 0.00 0.00 87 1016.4
20260903110136 74 187 0.0 0.0 0.00 0.00 0.00 86 1016.1
20260903105238 74 187 0.0 0.0 0.00 0.00 0.00 86 1016.0
20260903104408 74 187 0.0 0.0 0.00 0.00 0.00 86 1016.0
20260903104336 74 187 0.0 0.0 0.00 0.00 0.00 86 1016.0
20260903103516 75 187 0.0 0.0 0.00 0.00 0.00 86 1015.9
20260903103440 75 187 0.0 0.0 0.00 0.00 0.00 86 1015.9
20260903102621 75 169 0.0 0.0 0.00 0.00 0.00 86 1015.9
20260903102538 75 169 0.0 0.0 0.00 0.00 0.00 86 1015.9
20260903101638 75 167 0.0 0.0 0.00 0.00 0.00 86 1015.9
20260903100046 75 205 0.0 0.0 0.00 0.00 0.00 86 1015.7
20260903100000 75 205 0.0 0.0 0.00 0.00 0.00 86 1015.7
20260903095924 75 205 0.0 0.0 0.00 0.00 0.00 86 1015.7
20260903095838 75 205 0.0 0.0 0.00 0.00 0.00 86 1015.7
20260903095015 75 205 0.0 0.0 0.00 0.00 0.00 86 1015.6
20260903094943 75 205 0.0 0.0 0.00 0.00 0.00 86 1015.6
20260903094118 75 167 0.0 0.0 0.00 0.00 0.00 86 1015.8
20260903094038 75 167 0.0 0.0 0.00 0.00 0.00 86 1015.8
20260903092239 75 169 0.0 0.0 0.00 0.00 0.00 86 1015.8
20260903091428 75 169 0.0 0.0 0.00 0.00 0.00 86 1015.9
20260903091351 75 169 0.0 0.0 0.00 0.00 0.00 86 1015.9
20260903090439 75 169 0.0 0.0 0.00 0.00 0.00 86 1015.9
20260903085614 75 169 0.0 0.0 0.00 0.00 0.00 86 1015.9
20260903085537 75 169 0.0 0.0 0.00 0.00 0.00 86 1015.9
20260903084715 75 169 0.0 0.0 0.00 0.00 0.00 86 1015.9
20260903084639 75 169 0.0 0.0 0.00 0.00 0.00 86 1015.9
20260903083808 75 169 0.0 0.0 0.00 0.00 0.00 86 1015.9
20260903083737 75 169 0.0 0.0 0.00 0.00 0.00 86 1015.9
20260903082917 75 170 0.0 0.0 0.00 0.00 0.00 86 1015.9
20260903082838 75 170 0.0 0.0 0.00 0.00 0.00 86 1015.9
20260903082008 75 170 0.0 0.0 0.00 0.00 0.00 86 1015.9
20260903081937 75 170 0.0 0.0 0.00 0.00 0.00 86 1015.9
20260903081037 75 169 0.0 0.0 0.00 0.00 0.00 86 1015.8
20260903075239 75 173 0.0 0.0 0.00 0.00 0.00 86 1015.8
20260903074338 75 173 0.0 0.0 0.00 0.00 0.00 87 1015.8
20260903073440 75 173 0.0 0.0 0.00 0.00 0.00 87 1015.8
20260903072746 75 173 0.0 0.0 0.00 0.00 0.00 87 1015.9
20260903072707 75 173 0.0 0.0 0.00 0.00 0.00 87 1015.9
20260903072625 75 173 0.0 0.0 0.00 0.00 0.00 87 1015.9
20260903072538 75 173 0.0 0.0 0.00 0.00 0.00 87 1015.9
20260903071637 76 173 0.0 0.0 0.00 0.00 0.00 86 1015.8
20260903070844 76 173 0.0 0.0 0.00 0.00 0.00 86 1015.9
20260903070811 76 173 0.0 0.0 0.00 0.00 0.00 86 1015.9
20260903070738 76 173 0.0 0.0 0.00 0.00 0.00 86 1015.9
20260903065922 76 173 0.0 0.0 0.00 0.00 0.00 85 1015.8
20260903065837 76 173 0.0 0.0 0.00 0.00 0.00 85 1015.8
20260903065027 77 173 0.0 0.0 0.00 0.00 0.00 85 1015.9
20260903064937 77 173 0.0 0.0 0.00 0.00 0.00 85 1015.9
20260903064037 77 163 0.0 0.0 0.00 0.00 0.00 84 1016.0
20260903063142 77 168 0.0 0.0 0.00 0.00 0.00 84 1016.1
20260903061337 76 192 0.0 0.0 0.00 0.00 0.00 85 1016.5
20260903060438 76 207 0.0 0.0 0.00 0.00 0.00 85 1016.9
20260903055612 73 0 0.0 0.0 0.00 0.00 0.00 88 1017.3
20260903055537 73 0 0.0 0.0 0.00 0.00 0.00 88 1017.3
20260903054725 73 0 0.0 0.0 0.00 0.00 0.00 88 1017.1
20260903054638 73 0 0.0 0.0 0.00 0.00 0.00 88 1017.1
20260903053740 73 0 0.0 0.0 0.00 0.00 0.00 88 1017.2
20260903052009 73 0 0.0 0.0 0.00 0.00 0.00 88 1017.1
20260903051937 73 0 0.0 0.0 0.00 0.00 0.00 88 1017.1
20260903051037 73 0 0.0 0.0 0.00 0.00 0.00 88 1017.0
20260903050210 73 0 0.0 0.0 0.00 0.00 0.00 88 1017.0
20260903050138 73 0 0.0 0.0 0.00 0.00 0.00 88 1017.0
20260903045311 73 0 0.0 0.0 0.00 0.00 0.00 88 1017.0
20260903045238 73 0 0.0 0.0 0.00 0.00 0.00 88 1017.0
20260903044426 73 0 0.0 0.0 0.00 0.00 0.00 88 1016.8
20260903044338 73 0 0.0 0.0 0.00 0.00 0.00 88 1016.8
20260903043439 73 0 0.0 0.0 0.00 0.00 0.00 88 1016.7
20260903042623 73 0 0.0 0.0 0.00 0.00 0.00 88 1016.6
20260903042541 73 0 0.0 0.0 0.00 0.00 0.00 88 1016.6
20260903041713 73 0 0.0 0.0 0.00 0.00 0.00 88 1016.5
20260903041639 73 0 0.0 0.0 0.00 0.00 0.00 88 1016.5
20260903040811 73 0 0.0 0.0 0.00 0.00 0.00 88 1016.7
20260903040740 73 0 0.0 0.0 0.00 0.00 0.00 88 1016.7
20260903035837 73 0 0.0 0.0 0.00 0.00 0.00 88 1016.7
20260903034938 73 0 0.0 0.0 0.00 0.00 0.00 88 1016.7
20260903034130 73 0 0.0 0.0 0.00 0.00 0.00 88 1016.9
20260903034036 73 0 0.0 0.0 0.00 0.00 0.00 88 1016.9
20260903033248 73 0 0.0 0.0 0.00 0.00 0.00 88 1016.8
20260903033137 73 0 0.0 0.0 0.00 0.00 0.00 88 1016.8
20260903031338 73 0 0.0 0.0 0.00 0.00 0.00 88 1016.9
20260903030437 73 0 0.0 0.0 0.00 0.00 0.00 88 1017.1
20260903025610 73 0 0.0 0.0 0.00 0.00 0.00 88 1017.0
20260903025538 73 0 0.0 0.0 0.00 0.00 0.00 88 1017.0
20260903024719 73 0 0.0 0.0 0.00 0.00 0.00 88 1017.2
20260903024638 73 0 0.0 0.0 0.00 0.00 0.00 88 1017.2
20260903023738 73 0 0.0 0.0 0.00 0.00 0.00 88 1017.3
20260903022838 73 0 0.0 0.0 0.00 0.00 0.00 88 1017.2
20260903022731 73 0 0.0 0.0 0.00 0.00 0.00 88 1017.1
20260903021829 73 0 0.0 0.0 0.00 0.00 0.00 88 1017.2
20260903020930 73 0 0.0 0.0 0.00 0.00 0.00 88 1017.3
20260903020031 73 0 0.0 0.0 0.00 0.00 0.00 88 1017.2
20260903015133 73 0 0.0 0.0 0.00 0.00 0.00 88 1017.3
20260903014231 73 0 0.0 0.0 0.00 0.00 0.00 88 1017.3
20260903013331 73 0 0.0 0.0 0.00 0.00 0.00 88 1017.1
20260903012431 73 0 0.0 0.0 0.00 0.00 0.00 88 1017.0
20260903011530 73 0 0.0 0.0 0.00 0.00 0.00 88 1016.9
20260903010632 73 0 0.0 0.0 0.00 0.00 0.00 88 1016.9
20260903005730 73 0 0.0 0.0 0.00 0.00 0.00 88 1016.7
20260903004830 73 0 0.0 0.0 0.00 0.00 0.00 88 1016.6
20260903003930 73 0 0.0 0.0 0.00 0.00 0.00 88 1016.6
20260903003245 73 0 0.0 0.0 0.00 0.00 0.00 88 1016.6
20260903003030 73 0 0.0 0.0 0.00 0.00 0.00 88 1016.6
20260903002130 73 0 0.0 0.0 0.00 0.00 0.00 88 1016.5
20260903001231 73 0 0.0 0.0 0.00 0.00 0.00 88 1016.6
20260903000332 73 0 0.0 0.0 0.00 0.00 0.00 88 1016.6
20260902235431 73 0 0.0 0.0 0.00 0.00 0.00 88 1016.5
20260902231830 73 0 0.0 0.0 0.00 0.00 0.00 88 1016.5
20260902230931 73 0 0.0 0.0 0.00 0.00 0.00 88 1016.5
20260902230030 73 0 0.0 0.0 0.00 0.00 0.00 88 1016.5
20260902225130 73 0 0.0 0.0 0.00 0.00 0.00 88 1016.6
20260902224230 73 0 0.0 0.0 0.00 0.00 0.00 88 1016.6
20260902223331 73 0 0.0 0.0 0.00 0.00 0.00 88 1016.6
20260902222429 73 0 0.0 0.0 0.00 0.00 0.00 88 1016.7
20260902221530 73 0 0.0 0.0 0.00 0.00 0.00 88 1016.6
20260902220632 73 0 0.0 0.0 0.00 0.00 0.00 88 1016.8
20260902215730 73 0 0.0 0.0 0.00 0.00 0.00 88 1016.7
20260902214831 73 0 0.0 0.0 0.00 0.00 0.00 88 1016.7
20260902213931 73 0 0.0 0.0 0.00 0.00 0.00 88 1016.8
20260902213031 73 0 0.0 0.0 0.00 0.00 0.00 88 1016.7
20260902212130 73 0 0.0 0.0 0.00 0.00 0.00 88 1016.8
20260902211233 73 0 0.0 0.0 0.00 0.00 0.00 88 1016.9
20260902210330 73 0 0.0 0.0 0.00 0.00 0.00 88 1016.8
20260902205429 73 0 0.0 0.0 0.00 0.00 0.00 88 1016.8
20260902204530 73 0 0.0 0.0 0.00 0.00 0.00 88 1016.9
20260902203630 73 0 0.0 0.0 0.00 0.00 0.00 88 1017.0
20260902202730 73 0 0.0 0.0 0.00 0.00 0.00 88 1017.0
20260902201831 73 0 0.0 0.0 0.00 0.00 0.00 88 1017.3
20260902200930 73 0 0.0 0.0 0.00 0.00 0.00 88 1017.3
20260902200030 73 0 0.0 0.0 0.00 0.00 0.00 88 1017.4
20260902195129 73 0 0.0 0.0 0.00 0.00 0.00 88 1017.6
20260902194229 73 0 0.0 0.0 0.00 0.00 0.00 88 1017.6
20260902193330 73 0 0.0 0.0 0.00 0.00 0.00 88 1017.8
20260902192430 73 0 0.0 0.0 0.00 0.00 0.00 88 1017.7
20260902191529 73 0 0.0 0.0 0.00 0.00 0.00 88 1017.7
20260902190630 73 0 0.0 0.0 0.00 0.00 0.00 88 1017.8
20260902185815 73 0 0.0 0.0 0.00 0.00 0.00 88 1017.8
20260902185731 73 0 0.0 0.0 0.00 0.00 0.00 88 1017.8
20260902184829 73 0 0.0 0.0 0.00 0.00 0.00 88 1017.8
20260902183929 73 0 0.0 0.0 0.00 0.00 0.00 88 1017.9
20260902183029 73 0 0.0 0.0 0.00 0.00 0.00 88 1018.2
20260902182129 73 0 0.0 0.0 0.00 0.00 0.00 88 1018.2
20260902181230 73 0 0.0 0.0 0.00 0.00 0.00 88 1018.4
20260902180330 73 0 0.0 0.0 0.00 0.00 0.00 88 1018.4
20260902175429 73 0 0.0 0.0 0.00 0.00 0.00 88 1018.5
20260902174529 73 0 0.0 0.0 0.00 0.00 0.00 88 1018.6
20260902173629 73 0 0.0 0.0 0.00 0.00 0.00 88 1018.6
20260902172730 73 0 0.0 0.0 0.00 0.00 0.00 88 1018.7
20260902171829 73 0 0.0 0.0 0.00 0.00 0.00 88 1018.8
20260902170930 73 0 0.0 0.0 0.00 0.00 0.00 88 1018.8
20260902170030 73 0 0.0 0.0 0.00 0.00 0.00 88 1018.8
20260902165130 73 0 0.0 0.0 0.00 0.00 0.00 88 1018.9
20260902164230 73 0 0.0 0.0 0.00 0.00 0.00 88 1018.9
20260902163329 73 0 0.0 0.0 0.00 0.00 0.00 88 1019.0
20260902162431 73 0 0.0 0.0 0.00 0.00 0.00 88 1019.0
20260902161531 73 0 0.0 0.0 0.00 0.00 0.00 88 1019.0
20260902160629 73 0 0.0 0.0 0.00 0.00 0.00 88 1019.1
20260902154829 73 0 0.0 0.0 0.00 0.00 0.00 88 1019.1
20260902153930 73 0 0.0 0.0 0.00 0.00 0.00 88 1019.2
20260902153029 73 0 0.0 0.0 0.00 0.00 0.00 88 1019.1
20260902152130 73 0 0.0 0.0 0.00 0.00 0.00 88 1019.0
20260902151229 73 0 0.0 0.0 0.00 0.00 0.00 88 1019.0
20260902150329 73 0 0.0 0.0 0.00 0.00 0.00 88 1018.9
20260902145430 73 0 0.0 0.0 0.00 0.00 0.00 88 1019.1
20260902144531 73 0 0.0 0.0 0.00 0.00 0.00 88 1019.1
20260902143629 73 0 0.0 0.0 0.00 0.00 0.00 88 1019.1
20260902142730 73 0 0.0 0.0 0.00 0.00 0.00 88 1019.1
20260902141833 73 0 0.0 0.0 0.00 0.00 0.00 88 1019.2
20260902140930 73 0 0.0 0.0 0.00 0.00 0.00 88 1019.2
20260902140030 73 0 0.0 0.0 0.00 0.00 0.00 88 1019.2